GW6033 Weather Reports


time (UTC)temp
F
wind
direction
speed
knots
gust
knots
rain 1hr
in
rain 24hr
in
rain mn
in
humidity
%
barometer
mb
20260508105008 40 274 0.0 0.0 0.00 0.00 0.00 93 1018.1
20260508104505 41 273 0.0 0.0 0.00 0.00 0.00 93 1017.9
20260508104001 41 274 0.0 0.0 0.00 0.00 0.00 92 1018.0
20260508103458 41 274 0.9 0.9 0.00 0.00 0.00 92 1017.9
20260508102955 41 274 0.0 0.9 0.00 0.00 0.00 92 1017.4
20260508102454 42 274 0.0 0.0 0.00 0.00 0.00 92 1017.2
20260508101950 42 275 0.0 0.0 0.00 0.00 0.00 92 1016.9
20260508101448 43 252 0.0 0.0 0.00 0.00 0.00 92 1017.3
20260508100945 42 251 0.0 0.0 0.00 0.00 0.00 91 1017.0
20260508100444 42 257 0.0 0.0 0.00 0.00 0.00 91 1017.2
20260508095939 42 256 0.0 0.9 0.00 0.00 0.00 91 1016.9
20260508095437 42 272 0.0 0.0 0.00 0.00 0.00 91 1016.9
20260508094934 42 272 0.0 0.0 0.00 0.00 0.00 90 1016.9
20260508094431 42 272 0.0 0.0 0.00 0.00 0.00 90 1017.0
20260508093927 42 272 0.0 0.0 0.00 0.00 0.00 90 1016.9
20260508093425 43 272 0.0 0.0 0.00 0.00 0.00 90 1017.0
20260508092922 43 272 0.0 0.0 0.00 0.00 0.00 89 1017.2
20260508092420 43 263 0.0 0.0 0.00 0.00 0.00 89 1017.5
20260508091918 43 263 0.0 0.0 0.00 0.00 0.00 89 1017.4
20260508091415 43 263 0.0 0.0 0.00 0.00 0.00 89 1017.4
20260508090912 43 263 0.0 0.0 0.00 0.00 0.00 88 1017.5
20260508090411 43 263 0.0 0.0 0.00 0.00 0.00 88 1017.6
20260508085906 43 265 0.0 0.0 0.00 0.00 0.00 88 1017.6
20260508085403 44 265 0.0 0.0 0.00 0.00 0.00 87 1017.6
20260508084859 44 265 0.0 0.0 0.00 0.00 0.00 87 1017.4
20260508084356 44 263 0.0 0.0 0.00 0.00 0.00 86 1017.7
20260508083854 45 281 0.0 0.0 0.00 0.00 0.00 85 1017.5
20260508083352 45 282 0.0 0.9 0.00 0.00 0.00 85 1017.6
20260508082850 45 282 0.0 0.0 0.00 0.00 0.00 85 1017.7
20260508082349 46 284 0.0 0.0 0.00 0.00 0.00 85 1017.7
20260508081846 46 281 0.0 0.0 0.00 0.00 0.00 84 1017.6
20260508081342 46 281 0.0 0.0 0.00 0.00 0.00 84 1018.0
20260508080839 46 281 0.0 0.0 0.00 0.00 0.00 83 1017.9
20260508080337 46 281 0.0 0.0 0.00 0.00 0.00 82 1018.0
20260508075834 46 281 0.0 0.0 0.00 0.00 0.00 82 1018.0
20260508075331 46 282 0.0 0.0 0.00 0.00 0.00 82 1017.9
20260508074829 47 281 0.0 0.0 0.00 0.00 0.00 81 1018.0
20260508074326 47 274 0.0 0.0 0.00 0.00 0.00 80 1017.9
20260508073823 48 267 0.9 0.9 0.00 0.00 0.00 79 1018.0
20260508073321 48 246 0.9 0.9 0.00 0.00 0.00 79 1017.6
20260508072817 48 249 0.0 0.0 0.00 0.00 0.00 78 1017.9
20260508072313 48 253 0.0 0.0 0.00 0.00 0.00 78 1017.9
20260508071811 49 254 0.0 0.0 0.00 0.00 0.00 77 1017.9
20260508071309 49 257 0.0 0.0 0.00 0.00 0.00 76 1017.7
20260508070806 49 258 0.0 0.0 0.00 0.00 0.00 76 1017.6
20260508070305 49 290 0.0 0.0 0.00 0.00 0.00 75 1017.7
20260508065801 50 278 0.0 0.0 0.00 0.00 0.00 74 1017.6
20260508065259 50 272 0.0 0.9 0.00 0.00 0.00 72 1017.5
20260508064757 51 265 0.0 0.0 0.00 0.00 0.00 71 1017.5
20260508064255 51 227 0.9 0.9 0.00 0.00 0.00 70 1017.4
20260508063752 51 275 0.0 0.0 0.00 0.00 0.00 69 1017.5
20260508063250 51 271 0.9 0.9 0.00 0.00 0.00 68 1017.9
20260508062747 52 281 0.0 0.0 0.00 0.00 0.00 66 1018.2
20260508062245 52 286 0.0 0.0 0.00 0.00 0.00 66 1018.2
20260508061741 52 287 0.9 1.7 0.00 0.00 0.00 65 1018.6
20260508061238 52 248 2.6 4.3 0.00 0.00 0.00 65 1018.7
20260508060735 52 258 0.9 1.7 0.00 0.00 0.00 65 1018.2
20260508060233 52 273 0.0 0.0 0.00 0.00 0.00 65 1017.5
20260508055728 52 275 0.0 0.0 0.00 0.00 0.00 66 1017.4
20260508055225 52 289 0.9 1.7 0.00 0.00 0.00 65 1017.3
20260508054721 52 277 0.0 0.0 0.00 0.00 0.00 65 1017.3
20260508054219 52 233 0.9 1.7 0.00 0.00 0.00 65 1017.0
20260508053716 52 281 0.9 0.9 0.00 0.00 0.00 64 1017.2
20260508053214 53 264 0.0 0.0 0.00 0.00 0.00 65 1017.3
20260508052710 53 271 0.0 0.0 0.00 0.00 0.00 64 1017.2
20260508052207 53 274 0.9 0.9 0.00 0.00 0.00 64 1017.3
20260508051704 53 262 0.0 0.9 0.00 0.00 0.00 64 1017.0
20260508051159 53 284 0.9 0.9 0.00 0.00 0.00 64 1016.9
20260508050655 53 268 0.9 0.9 0.00 0.00 0.00 63 1017.2
20260508050153 53 289 0.0 0.9 0.00 0.00 0.00 63 1017.5
20260508045648 53 301 1.7 1.7 0.00 0.00 0.00 62 1017.7
20260508045147 53 287 0.9 0.9 0.00 0.00 0.00 62 1017.9
20260508044644 54 274 1.7 2.6 0.00 0.00 0.00 61 1017.9
20260508044140 54 282 1.7 1.7 0.00 0.00 0.00 60 1017.4
20260508043636 54 299 0.9 0.9 0.00 0.00 0.00 59 1017.0
20260508043134 54 256 0.0 0.0 0.00 0.00 0.00 59 1017.0
20260508042631 54 275 0.0 0.0 0.00 0.00 0.00 59 1016.8
20260508042128 54 280 0.0 0.0 0.00 0.00 0.00 58 1016.9
20260508041624 55 259 0.0 0.9 0.00 0.00 0.00 58 1016.6
20260508041121 55 233 2.6 5.2 0.00 0.00 0.00 56 1016.7
20260508040618 56 281 1.7 1.7 0.00 0.00 0.00 55 1016.7
20260508040116 57 284 0.9 0.9 0.00 0.00 0.00 53 1016.9
20260508035612 58 276 0.9 0.9 0.00 0.00 0.00 49 1016.8
20260508035110 58 296 0.9 0.9 0.00 0.00 0.00 43 1016.9
20260508034606 58 286 0.0 0.0 0.00 0.00 0.00 44 1016.8
20260508034103 58 272 0.9 0.9 0.00 0.00 0.00 43 1016.6
20260508033601 58 264 0.9 0.9 0.00 0.00 0.00 44 1016.9
20260508033059 58 281 0.0 0.0 0.00 0.00 0.00 44 1016.9
20260508032555 58 281 0.0 0.0 0.00 0.00 0.00 43 1016.7
20260508032053 58 281 0.0 0.0 0.00 0.00 0.00 43 1016.7
20260508031550 58 283 0.0 0.0 0.00 0.00 0.00 43 1016.4
20260508031045 59 283 0.0 0.0 0.00 0.00 0.00 42 1016.4
20260508030542 59 288 0.9 0.9 0.00 0.00 0.00 41 1016.3
20260508030041 59 263 0.0 0.0 0.00 0.00 0.00 42 1016.8
20260508025536 59 263 0.0 0.0 0.00 0.00 0.00 41 1016.6
20260508025033 59 280 0.0 0.0 0.00 0.00 0.00 40 1016.2
20260508024529 59 284 0.0 0.0 0.00 0.00 0.00 40 1016.6
20260508024026 59 263 0.0 0.0 0.00 0.00 0.00 40 1016.2
20260508023523 60 263 0.0 0.0 0.00 0.00 0.00 40 1016.0
20260508023021 60 284 0.0 0.0 0.00 0.00 0.00 39 1016.1
20260508022516 60 284 1.7 1.7 0.00 0.00 0.00 38 1015.9
20260508022013 60 275 1.7 1.7 0.00 0.00 0.00 38 1016.0
20260508021509 61 274 2.6 4.3 0.00 0.00 0.00 39 1016.1
20260508021005 61 278 0.9 0.9 0.00 0.00 0.00 39 1016.4
20260508020503 62 300 3.5 4.3 0.00 0.00 0.00 35 1016.0
20260508020000 61 287 0.9 1.7 0.00 0.00 0.00 36 1015.9
20260508015458 61 256 4.3 5.2 0.00 0.00 0.00 38 1016.2
20260508014954 62 280 5.2 7.0 0.00 0.00 0.00 37 1015.7
20260508014451 64 249 9.6 14.8 0.00 0.00 0.00 35 1015.6
20260508013947 64 248 0.0 0.0 0.00 0.00 0.00 32 1015.0
20260508013443 64 248 0.0 0.0 0.00 0.00 0.00 29 1015.1
20260508012941 64 248 0.0 0.0 0.00 0.00 0.00 29 1015.0
20260508012437 65 248 0.0 0.0 0.00 0.00 0.00 28 1014.7
20260508011935 65 248 0.0 0.0 0.00 0.00 0.00 27 1014.5
20260508011434 65 248 0.0 0.9 0.00 0.00 0.00 27 1014.5
20260508010930 65 248 0.0 0.0 0.00 0.00 0.00 27 1014.5
20260508010427 65 248 0.0 0.0 0.00 0.00 0.00 29 1014.7
20260508005924 65 242 0.9 0.9 0.00 0.00 0.00 26 1014.5
20260508005421 65 249 0.0 0.0 0.00 0.00 0.00 28 1014.9
20260508004917 66 236 1.7 1.7 0.00 0.00 0.00 26 1014.8
20260508004413 66 246 0.9 0.9 0.00 0.00 0.00 26 1014.4
20260508003910 66 250 0.0 0.0 0.00 0.00 0.00 26 1014.8
20260508003407 66 218 1.7 1.7 0.00 0.00 0.00 26 1014.7
20260508002904 66 198 3.5 4.3 0.00 0.00 0.00 25 1014.8
20260508002400 66 229 0.9 1.7 0.00 0.00 0.00 25 1014.5
20260508001856 66 209 1.7 1.7 0.00 0.00 0.00 26 1014.4
20260508001353 67 295 1.7 2.6 0.00 0.00 0.00 26 1014.7
20260508000849 67 228 0.9 0.9 0.00 0.00 0.00 25 1014.3
20260508000346 69 240 0.9 0.9 0.00 0.00 0.00 24 1014.7
20260507235842 69 194 2.6 2.6 0.00 0.00 0.00 23 1014.7
20260507235340 68 237 1.7 1.7 0.00 0.00 0.00 25 1014.3
20260507234837 69 239 1.7 1.7 0.00 0.00 0.00 25 1014.5
20260507234333 68 234 0.0 0.9 0.00 0.00 0.00 26 1014.5
20260507233830 68 241 0.0 0.9 0.00 0.00 0.00 27 1014.5
20260507233327 69 199 2.6 2.6 0.00 0.00 0.00 25 1014.9
20260507232826 69 250 3.5 5.2 0.00 0.00 0.00 25 1014.8
20260507232321 69 247 1.7 1.7 0.00 0.00 0.00 24 1014.7
20260507231819 70 246 0.0 0.9 0.00 0.00 0.00 25 1014.7
20260507231315 69 256 2.6 2.6 0.00 0.00 0.00 25 1014.9
20260507230812 69 207 3.5 5.2 0.00 0.00 0.00 24 1014.9
20260507230309 69 253 0.9 0.9 0.00 0.00 0.00 25 1014.9
20260507225809 69 257 2.6 6.1 0.00 0.00 0.00 24 1014.7
20260507225306 69 226 4.3 6.1 0.00 0.00 0.00 23 1014.9
20260507224802 68 200 3.5 5.2 0.00 0.00 0.00 25 1014.8
20260507224258 69 214 2.6 4.3 0.00 0.00 0.00 24 1014.4
20260507223754 68 203 3.5 5.2 0.00 0.00 0.00 25 1015.0
20260507223251 67 203 2.6 2.6 0.00 0.00 0.00 26 1014.9
20260507222749 68 269 6.1 9.6 0.00 0.00 0.00 26 1014.9
20260507222244 69 246 1.7 2.6 0.00 0.00 0.00 24 1015.0
20260507221742 69 228 2.6 2.6 0.00 0.00 0.00 25 1015.0
20260507221238 68 253 0.9 0.9 0.00 0.00 0.00 26 1015.3
20260507220734 69 201 4.3 5.2 0.00 0.00 0.00 25 1015.3
20260507220233 68 204 3.5 5.2 0.00 0.00 0.00 26 1015.3
20260507215728 67 242 0.9 1.7 0.00 0.00 0.00 27 1015.1
20260507215226 67 212 5.2 7.0 0.00 0.00 0.00 27 1015.4
20260507214723 69 258 2.6 5.2 0.00 0.00 0.00 26 1015.3
20260507214220 68 250 6.1 7.8 0.00 0.00 0.00 25 1015.9
20260507213716 68 221 2.6 4.3 0.00 0.00 0.00 26 1015.6
20260507213213 67 220 0.9 1.7 0.00 0.00 0.00 28 1015.5
20260507212709 67 266 0.9 1.7 0.00 0.00 0.00 27 1015.9
20260507212206 68 227 5.2 8.7 0.00 0.00 0.00 26 1015.7
20260507211703 67 237 4.3 5.2 0.00 0.00 0.00 25 1015.9
20260507211158 68 176 2.6 2.6 0.00 0.00 0.00 26 1015.9
20260507210656 68 273 6.1 7.0 0.00 0.00 0.00 25 1015.7
20260507210152 69 153 3.5 5.2 0.00 0.00 0.00 24 1015.9
20260507205649 69 184 6.1 7.8 0.00 0.00 0.00 24 1016.0
20260507205146 68 196 6.1 9.6 0.00 0.00 0.00 25 1015.9
20260507204642 68 257 4.3 5.2 0.00 0.00 0.00 27 1016.3
20260507204140 69 217 6.1 7.8 0.00 0.00 0.00 27 1016.0
20260507203637 69 167 3.5 4.3 0.00 0.00 0.00 25 1016.3
20260507203135 67 263 2.6 4.3 0.00 0.00 0.00 27 1016.0
20260507202630 68 298 4.3 7.8 0.00 0.00 0.00 26 1016.2
20260507202127 68 217 3.5 4.3 0.00 0.00 0.00 27 1016.4
20260507201622 68 262 2.6 4.3 0.00 0.00 0.00 28 1016.3
20260507201119 67 223 2.6 2.6 0.00 0.00 0.00 27 1016.4
20260507200615 67 262 2.6 2.6 0.00 0.00 0.00 29 1016.7
20260507200111 66 237 2.6 2.6 0.00 0.00 0.00 29 1016.9
20260507195608 68 167 1.7 2.6 0.00 0.00 0.00 28 1017.0
20260507195106 67 258 1.7 2.6 0.00 0.00 0.00 30 1017.0
20260507194602 67 268 3.5 6.1 0.00 0.00 0.00 30 1016.9
20260507194057 66 227 3.5 4.3 0.00 0.00 0.00 31 1016.9
20260507193555 67 181 5.2 7.8 0.00 0.00 0.00 31 1017.0
20260507193052 66 257 0.9 0.9 0.00 0.00 0.00 30 1017.2
20260507192548 66 161 1.7 1.7 0.00 0.00 0.00 31 1017.4
20260507192045 66 167 2.6 4.3 0.00 0.00 0.00 30 1017.3
20260507191540 65 272 0.0 0.9 0.00 0.00 0.00 30 1017.4
20260507191038 65 259 1.7 1.7 0.00 0.00 0.00 30 1017.3
20260507190535 65 150 2.6 2.6 0.00 0.00 0.00 29 1017.2
20260507190034 66 168 1.7 2.6 0.00 0.00 0.00 29 1017.5
20260507185531 66 259 0.0 0.9 0.00 0.00 0.00 32 1017.6
20260507185028 65 271 1.7 1.7 0.00 0.00 0.00 33 1017.3
20260507184526 66 184 3.5 4.3 0.00 0.00 0.00 33 1017.2
20260507184024 66 279 4.3 6.1 0.00 0.00 0.00 31 1017.4
20260507183519 66 260 2.6 2.6 0.00 0.00 0.00 30 1017.3
20260507183017 65 242 2.6 4.3 0.00 0.00 0.00 30 1017.4
20260507182513 65 140 1.7 1.7 0.00 0.00 0.00 31 1017.6
20260507182008 65 261 3.5 6.1 0.00 0.00 0.00 32 1017.5
20260507181506 63 261 0.9 0.9 0.00 0.00 0.00 35 1017.5
20260507181002 64 285 1.7 1.7 0.00 0.00 0.00 34 1017.7
20260507180458 63 244 0.9 1.7 0.00 0.00 0.00 35 1017.7
20260507175954 63 188 2.6 2.6 0.00 0.00 0.00 35 1017.6
20260507175452 63 255 0.9 0.9 0.00 0.00 0.00 34 1017.6
20260507174949 64 237 2.6 2.6 0.00 0.00 0.00 35 1017.9
20260507174446 64 231 4.3 6.1 0.00 0.00 0.00 34 1017.7
20260507173943 64 230 3.5 5.2 0.00 0.00 0.00 34 1017.6
20260507173440 62 242 0.9 1.7 0.00 0.00 0.00 36 1017.9
20260507172937 62 233 1.7 2.6 0.00 0.00 0.00 36 1018.0
20260507172434 62 120 0.9 1.7 0.00 0.00 0.00 37 1018.0
20260507171930 60 248 0.0 0.9 0.00 0.00 0.00 37 1018.0
20260507171426 59 267 0.9 0.9 0.00 0.00 0.00 37 1018.1
20260507170924 59 126 2.6 4.3 0.00 0.00 0.00 36 1018.2
20260507170420 59 127 2.6 4.3 0.00 0.00 0.00 37 1018.2
20260507165917 60 137 0.9 0.9 0.00 0.00 0.00 36 1018.1
20260507165413 59 167 2.6 2.6 0.00 0.00 0.00 36 1018.5
20260507164908 59 105 4.3 8.7 0.00 0.00 0.00 37 1018.6
20260507164406 58 207 1.7 1.7 0.00 0.00 0.00 38 1018.6
20260507163903 58 235 0.9 0.9 0.00 0.00 0.00 39 1018.3
20260507163400 57 50 1.7 2.6 0.00 0.00 0.00 40 1018.5
20260507162857 57 148 2.6 4.3 0.00 0.00 0.00 40 1018.6
20260507162352 57 118 2.6 4.3 0.00 0.00 0.00 39 1018.2
20260507161850 56 232 0.9 1.7 0.00 0.00 0.00 41 1018.6
20260507161346 56 240 1.7 2.6 0.00 0.00 0.00 40 1018.8
20260507160843 56 235 2.6 2.6 0.00 0.00 0.00 41 1018.6
20260507160338 56 220 0.9 1.7 0.00 0.00 0.00 41 1018.9
20260507155835 55 165 1.7 4.3 0.00 0.00 0.00 41 1018.9
20260507155330 55 263 1.7 1.7 0.00 0.00 0.00 41 1018.8
20260507154827 55 193 0.9 0.9 0.00 0.00 0.00 40 1019.0
20260507154325 55 86 1.7 2.6 0.00 0.00 0.00 41 1018.7
20260507153821 55 234 1.7 1.7 0.00 0.00 0.00 41 1018.8
20260507153318 54 125 0.9 0.9 0.00 0.00 0.00 41 1018.8
20260507152815 54 216 0.9 0.9 0.00 0.00 0.00 41 1019.0
20260507152311 55 182 1.7 1.7 0.00 0.00 0.00 40 1019.0
20260507151807 54 296 0.9 0.9 0.00 0.00 0.00 41 1018.7
20260507151303 53 101 3.5 5.2 0.00 0.00 0.00 41 1018.8
20260507150800 53 143 2.6 4.3 0.00 0.00 0.00 41 1018.9
20260507150257 52 296 0.9 1.7 0.00 0.00 0.00 42 1018.8
20260507145753 52 115 1.7 4.3 0.00 0.00 0.00 42 1018.9
20260507145249 51 223 0.9 0.9 0.00 0.00 0.00 43 1019.0
20260507144747 51 88 3.5 6.1 0.00 0.00 0.00 43 1019.3
20260507144244 50 53 1.7 2.6 0.00 0.00 0.00 44 1018.9
20260507143740 50 250 0.9 0.9 0.00 0.00 0.00 45 1019.3
20260507143238 49 115 1.7 1.7 0.00 0.00 0.00 44 1019.0
20260507142734 49 53 2.6 4.3 0.00 0.00 0.00 45 1019.3
20260507142230 48 247 0.9 0.9 0.00 0.00 0.00 46 1018.9
20260507141727 47 244 2.6 4.3 0.00 0.00 0.00 46 1018.9
20260507141224 47 148 1.7 2.6 0.00 0.00 0.00 46 1019.0
20260507140720 47 100 0.9 1.7 0.00 0.00 0.00 47 1018.9
20260507140218 46 206 0.9 0.9 0.00 0.00 0.00 47 1019.0
20260507135714 45 234 0.9 1.7 0.00 0.00 0.00 49 1018.9
20260507135212 45 226 1.7 1.7 0.00 0.00 0.00 50 1019.0
20260507134708 44 203 0.9 0.9 0.00 0.00 0.00 49 1019.2
20260507134204 44 125 3.5 5.2 0.00 0.00 0.00 50 1019.2
20260507133700 44 82 3.5 4.3 0.00 0.00 0.00 51 1019.0
20260507133158 43 226 1.7 1.7 0.00 0.00 0.00 51 1019.2
20260507132655 43 134 1.7 1.7 0.00 0.00 0.00 51 1019.0
20260507132151 42 146 1.7 1.7 0.00 0.00 0.00 52 1019.0
20260507131648 42 222 0.9 0.9 0.00 0.00 0.00 52 1018.8
20260507131146 42 167 1.7 2.6 0.00 0.00 0.00 52 1018.8
20260507130642 41 229 0.9 1.7 0.00 0.00 0.00 52 1018.7
20260507130140 41 246 0.9 1.7 0.00 0.00 0.00 53 1018.8
20260507125639 40 221 1.7 1.7 0.00 0.00 0.00 54 1018.8
20260507125136 39 248 0.0 0.0 0.00 0.00 0.00 56 1018.7
20260507124631 39 244 0.9 1.7 0.00 0.00 0.00 57 1018.3
20260507124130 39 115 1.7 1.7 0.00 0.00 0.00 58 1018.5
20260507123628 38 211 0.9 0.9 0.00 0.00 0.00 59 1018.7
20260507123124 38 234 0.0 0.0 0.00 0.00 0.00 58 1018.7
20260507122620 38 226 0.9 0.9 0.00 0.00 0.00 58 1018.6
20260507122115 38 263 0.9 2.6 0.00 0.00 0.00 58 1018.2
20260507121612 38 264 0.0 0.9 0.00 0.00 0.00 58 1018.3
20260507121108 37 208 0.9 1.7 0.00 0.00 0.00 58 1018.3
20260507120604 37 90 1.7 1.7 0.00 0.00 0.00 58 1018.3
20260507120101 37 254 0.0 0.0 0.00 0.00 0.00 58 1018.3
20260507115557 37 267 0.0 0.0 0.00 0.00 0.00 59 1018.5
20260507115053 37 94 1.7 1.7 0.00 0.00 0.00 59 1018.3
20260507114549 37 210 1.7 2.6 0.00 0.00 0.00 59 1018.2
20260507114047 37 99 1.7 2.6 0.00 0.00 0.00 59 1018.1
20260507113543 37 217 0.0 0.9 0.00 0.00 0.00 58 1018.3
20260507113041 37 240 0.9 1.7 0.00 0.00 0.00 58 1018.1
20260507112538 37 248 0.9 0.9 0.00 0.00 0.00 58 1018.2
20260507112035 38 120 0.9 1.7 0.00 0.00 0.00 57 1018.3
20260507111532 38 242 0.0 0.0 0.00 0.00 0.00 58 1018.3
20260507111029 38 242 0.9 0.9 0.00 0.00 0.00 57 1018.0
20260507110525 38 238 0.9 0.9 0.00 0.00 0.00 57 1018.0
20260507110021 38 228 0.0 0.9 0.00 0.00 0.00 57 1018.3
20260507105519 37 210 0.9 0.9 0.00 0.00 0.00 59 1018.2